EW1735 Weather Reports


time (UTC)temp
C
wind
direction
speed
KPH
gust
KPH
rain 1hr
cm
rain 24hr
cm
rain mn
cm
humidity
%
barometer
mb
20260506103829 8 150 0.0 0.0 0.00 0.00 0.00 86 1015.0
20260506103321 8 150 0.0 0.0 0.00 0.00 0.00 86 1015.0
20260506102833 8 150 0.0 0.0 0.00 0.00 0.00 86 1014.9
20260506102345 9 150 0.0 0.0 0.00 0.00 0.00 86 1014.9
20260506101836 9 150 0.0 0.0 0.00 0.00 0.00 85 1014.8
20260506101323 9 150 0.0 0.0 0.00 0.00 0.00 85 1014.8
20260506100833 9 150 0.0 0.0 0.00 0.00 0.00 85 1014.8
20260506100323 9 150 0.0 1.6 0.00 0.00 0.00 85 1014.8
20260506095819 9 150 0.0 1.6 0.00 0.00 0.00 84 1014.7
20260506095330 9 150 0.0 0.0 0.00 0.00 0.00 84 1014.7
20260506094820 10 150 0.0 0.0 0.00 0.00 0.00 84 1014.7
20260506094328 10 150 0.0 0.0 0.00 0.00 0.00 84 1014.7
20260506093818 10 150 0.0 0.0 0.00 0.00 0.00 84 1014.6
20260506093350 10 150 0.0 0.0 0.00 0.00 0.00 84 1014.6
20260506092821 10 150 0.0 0.0 0.00 0.00 0.00 83 1014.6
20260506092332 10 150 0.0 0.0 0.00 0.00 0.00 83 1014.6
20260506091823 10 150 0.0 0.0 0.00 0.00 0.00 83 1014.5
20260506091330 10 150 0.0 0.0 0.00 0.00 0.00 83 1014.6
20260506090820 10 150 0.0 0.0 0.00 0.00 0.00 83 1014.6
20260506090331 10 150 0.0 0.0 0.00 0.00 0.00 83 1014.5
20260506085826 10 150 0.0 0.0 0.00 0.00 0.00 82 1014.5
20260506085318 10 150 0.0 0.0 0.00 0.00 0.00 82 1014.4
20260506084848 10 150 0.0 0.0 0.00 0.00 0.00 81 1014.5
20260506084319 10 150 0.0 0.0 0.00 0.00 0.00 80 1014.4
20260506083830 11 150 0.0 0.0 0.00 0.00 0.00 80 1014.4
20260506083320 11 150 0.0 0.0 0.00 0.00 0.00 80 1014.4
20260506082829 11 150 0.0 0.0 0.00 0.00 0.00 79 1014.4
20260506082339 11 150 0.0 3.2 0.00 0.00 0.00 79 1014.4
20260506081828 11 150 0.0 3.2 0.00 0.00 0.00 79 1014.3
20260506081323 11 150 0.0 3.2 0.00 0.00 0.00 79 1014.3
20260506080834 11 150 1.6 1.6 0.00 0.00 0.00 78 1014.3
20260506080322 11 150 0.0 1.6 0.00 0.00 0.00 79 1014.2
20260506073324 12 150 0.0 0.0 0.00 0.00 0.00 77 1013.9
20260506072830 12 150 0.0 0.0 0.00 0.00 0.00 77 1013.8
20260506072320 12 150 0.0 0.0 0.00 0.00 0.00 76 1013.7
20260506071831 12 150 0.0 0.0 0.00 0.00 0.00 76 1013.7
20260506071326 12 150 0.0 0.0 0.00 0.00 0.00 75 1013.6
20260506070837 12 150 0.0 0.0 0.00 0.00 0.00 75 1013.6
20260506070327 12 150 0.0 0.0 0.00 0.00 0.00 76 1013.4
20260506062338 13 150 1.6 4.8 0.00 0.00 0.00 73 1013.1
20260506061848 13 51 0.0 1.6 0.00 0.00 0.00 72 1013.2
20260506061318 13 51 0.0 1.6 0.00 0.00 0.00 73 1013.1
20260506060829 13 51 0.0 0.0 0.00 0.00 0.00 72 1013.0
20260506060318 13 51 0.0 1.6 0.00 0.00 0.00 71 1012.9
20260506051318 15 60 0.0 0.0 0.00 0.00 0.00 64 1012.4
20260506050829 16 60 0.0 0.0 0.00 0.00 0.00 63 1012.4
20260506050319 16 60 0.0 0.0 0.00 0.00 0.00 63 1012.3
20260506044823 16 60 0.0 1.6 0.00 0.00 0.00 62 1012.1
20260506044318 16 60 0.0 1.6 0.00 0.00 0.00 60 1011.9
20260506043833 16 60 0.0 1.6 0.00 0.00 0.00 59 1011.9
20260506043323 16 24 0.0 0.0 0.00 0.00 0.00 59 1011.8
20260506042828 17 21 0.0 0.0 0.00 0.00 0.00 59 1011.7
20260506042319 17 21 0.0 1.6 0.00 0.00 0.00 57 1011.6
20260506041830 17 21 0.0 1.6 0.00 0.00 0.00 56 1011.5
20260506041324 18 9 0.0 1.6 0.00 0.00 0.00 54 1011.5
20260506040837 18 5 0.0 1.6 0.00 0.00 0.00 52 1011.4
20260506040326 18 5 0.0 1.6 0.00 0.00 0.00 52 1011.3
20260506035819 18 5 0.0 4.8 0.00 0.00 0.00 51 1011.2
20260506035329 19 3 1.6 4.8 0.00 0.00 0.00 50 1011.1
20260506034819 19 295 0.0 1.6 0.00 0.00 0.00 50 1011.0
20260506034326 20 295 0.0 3.2 0.00 0.00 0.00 49 1010.9
20260506033822 20 295 0.0 4.8 0.00 0.00 0.00 49 1010.8
20260506033352 20 295 1.6 4.8 0.00 0.00 0.00 48 1010.8
20260506032824 20 291 0.0 1.6 0.00 0.00 0.00 48 1010.7
20260506032335 20 291 0.0 3.2 0.00 0.00 0.00 48 1010.7
20260506031845 20 328 0.0 3.2 0.00 0.00 0.00 47 1010.6
20260506031353 21 309 0.0 1.6 0.00 0.00 0.00 46 1010.6
20260506030823 21 309 0.0 1.6 0.00 0.00 0.00 46 1010.4
20260506030333 21 311 0.0 1.6 0.00 0.00 0.00 45 1010.4
20260506025827 21 282 0.0 3.2 0.00 0.00 0.00 44 1010.3
20260506025338 22 286 0.0 3.2 0.00 0.00 0.00 43 1010.2
20260506024848 22 288 0.0 1.6 0.00 0.00 0.00 43 1010.1
20260506024322 22 288 0.0 3.2 0.00 0.00 0.00 42 1009.9
20260506023852 23 300 0.0 3.2 0.00 0.00 0.00 40 1009.9
20260506023319 23 265 0.0 3.2 0.00 0.00 0.00 40 1009.9
20260506022827 23 281 0.0 4.8 0.00 0.00 0.00 37 1009.8
20260506022336 23 327 1.6 8.0 0.00 0.00 0.00 36 1009.7
20260506021827 23 316 1.6 8.0 0.00 0.00 0.00 37 1009.7
20260506021325 23 344 3.2 6.4 0.00 0.00 0.00 36 1009.7
20260506020835 24 348 3.2 6.4 0.00 0.00 0.00 36 1009.6
20260506020325 24 3 1.6 6.4 0.00 0.00 0.00 36 1009.5
20260506015830 24 357 3.2 6.4 0.00 0.00 0.00 34 1009.4
20260506015320 24 9 3.2 11.3 0.00 0.00 0.00 34 1009.5
20260506014829 25 353 3.2 11.3 0.00 0.00 0.00 34 1009.4
20260506014322 25 10 3.2 8.0 0.00 0.00 0.00 35 1009.4
20260506013832 25 327 3.2 9.7 0.00 0.00 0.00 35 1009.4
20260506013343 25 320 3.2 9.7 0.00 0.00 0.00 35 1009.3
20260506012836 25 3 4.8 9.7 0.00 0.00 0.00 36 1009.2
20260506012346 25 295 1.6 4.8 0.00 0.00 0.00 39 1009.2
20260506011836 25 267 1.6 8.0 0.00 0.00 0.00 38 1009.2
20260506011330 25 310 1.6 8.0 0.00 0.00 0.00 38 1009.2
20260506010841 25 309 1.6 3.2 0.00 0.00 0.00 40 1009.2
20260506010333 25 300 1.6 6.4 0.00 0.00 0.00 39 1009.2
20260506005827 25 157 0.0 6.4 0.00 0.00 0.00 40 1009.2
20260506005335 25 300 1.6 6.4 0.00 0.00 0.00 39 1009.2
20260506004824 25 317 1.6 6.4 0.00 0.00 0.00 40 1009.2
20260506004351 25 285 1.6 6.4 0.00 0.00 0.00 39 1009.1
20260506003819 25 16 3.2 6.4 0.00 0.00 0.00 40 1009.1
20260506003329 25 295 1.6 4.8 0.00 0.00 0.00 40 1009.1
20260506002821 25 309 1.6 6.4 0.00 0.00 0.00 40 1009.1
20260506002331 25 295 1.6 6.4 0.00 0.00 0.00 42 1009.1
20260506001842 25 338 1.6 8.0 0.00 0.00 0.00 42 1009.1
20260506001328 25 3 4.8 8.0 0.00 0.00 0.00 41 1009.1
20260506000818 25 7 3.2 6.4 0.00 0.00 0.00 42 1009.1
20260506000329 25 276 3.2 4.8 0.00 0.00 0.00 42 1009.1
20260505235820 25 16 1.6 6.4 0.00 0.00 0.00 42 1009.1
20260505235329 25 313 3.2 6.4 0.00 0.00 0.00 41 1009.1
20260505234823 25 6 1.6 6.4 0.00 0.00 0.00 40 1009.1
20260505234328 26 5 1.6 8.0 0.00 0.00 0.00 41 1009.1
20260505233819 26 74 3.2 8.0 0.00 0.00 0.00 40 1009.1
20260505233329 26 290 1.6 6.4 0.00 0.00 0.00 40 1009.2
20260505232822 26 344 3.2 6.4 0.00 0.00 0.00 40 1009.2
20260505232351 26 163 1.6 6.4 0.00 0.00 0.00 41 1009.2
20260505231819 25 285 3.2 8.0 0.00 0.00 0.00 41 1009.3
20260505231334 25 10 3.2 9.7 0.00 0.00 0.00 42 1009.4
20260505230845 25 5 6.4 9.7 0.00 0.00 0.00 43 1009.4
20260505230333 25 326 3.2 9.7 0.00 0.00 0.00 42 1009.4
20260505225826 26 23 3.2 9.7 0.00 0.00 0.00 41 1009.5
20260505225336 26 18 3.2 8.0 0.00 0.00 0.00 42 1009.6
20260505224830 26 324 3.2 12.9 0.00 0.00 0.00 41 1009.7
20260505224322 25 305 3.2 12.9 0.00 0.00 0.00 42 1009.7
20260505223852 25 305 3.2 12.9 0.00 0.00 0.00 43 1009.7
20260505223322 25 10 4.8 12.9 0.00 0.00 0.00 43 1009.8
20260505222836 25 205 1.6 12.9 0.00 0.00 0.00 45 1009.9
20260505222325 24 20 8.0 12.9 0.00 0.00 0.00 43 1009.9
20260505221854 24 340 6.4 9.7 0.00 0.00 0.00 45 1009.9
20260505221324 25 266 3.2 14.5 0.00 0.00 0.00 45 1009.9
20260505220835 25 7 4.8 14.5 0.00 0.00 0.00 46 1010.1
20260505220326 25 35 4.8 9.7 0.00 0.00 0.00 43 1010.2
20260505215819 25 6 1.6 12.9 0.00 0.00 0.00 43 1010.2
20260505215329 25 275 3.2 12.9 0.00 0.00 0.00 41 1010.2
20260505214840 25 255 3.2 9.7 0.00 0.00 0.00 39 1010.2
20260505214319 24 346 1.6 9.7 0.00 0.00 0.00 45 1010.4
20260505213830 24 23 3.2 12.9 0.00 0.00 0.00 42 1010.4
20260505213321 23 358 4.8 12.9 0.00 0.00 0.00 44 1010.5
20260505212828 23 18 3.2 11.3 0.00 0.00 0.00 46 1010.5
20260505212317 23 11 1.6 6.4 0.00 0.00 0.00 49 1010.6
20260505211828 23 269 3.2 6.4 0.00 0.00 0.00 46 1010.6
20260505211341 23 47 1.6 8.0 0.00 0.00 0.00 49 1010.7
20260505210829 23 103 1.6 8.0 0.00 0.00 0.00 46 1010.8
20260505210319 23 8 3.2 9.7 0.00 0.00 0.00 50 1010.8
20260505205846 23 346 4.8 8.0 0.00 0.00 0.00 47 1010.8
20260505205335 23 344 1.6 4.8 0.00 0.00 0.00 48 1010.8
20260505204826 23 265 1.6 6.4 0.00 0.00 0.00 51 1011.0
20260505204342 22 20 1.6 16.1 0.00 0.00 0.00 50 1011.0
20260505203830 22 106 1.6 16.1 0.00 0.00 0.00 50 1011.0
20260505203323 22 345 3.2 9.7 0.00 0.00 0.00 53 1011.1
20260505202830 22 277 1.6 9.7 0.00 0.00 0.00 52 1011.2
20260505202320 22 151 1.6 9.7 0.00 0.00 0.00 53 1011.3
20260505201831 22 19 3.2 12.9 0.00 0.00 0.00 54 1011.3
20260505201324 21 26 4.8 12.9 0.00 0.00 0.00 52 1011.4
20260505200832 21 38 4.8 12.9 0.00 0.00 0.00 54 1011.5
20260505200322 21 22 3.2 12.9 0.00 0.00 0.00 56 1011.6
20260505195830 20 9 6.4 12.9 0.00 0.00 0.00 54 1011.6
20260505195340 20 36 6.4 12.9 0.00 0.00 0.00 54 1011.6
20260505194828 21 83 6.4 12.9 0.00 0.00 0.00 55 1011.6
20260505194323 21 10 3.2 12.9 0.00 0.00 0.00 53 1011.7
20260505193833 21 24 4.8 12.9 0.00 0.00 0.00 55 1011.7
20260505193325 21 12 4.8 8.0 0.00 0.00 0.00 55 1011.8
20260505192818 21 28 1.6 9.7 0.00 0.00 0.00 56 1011.8
20260505192328 20 300 3.2 9.7 0.00 0.00 0.00 55 1011.8
20260505191839 20 340 3.2 9.7 0.00 0.00 0.00 58 1011.9
20260505191331 20 11 4.8 8.0 0.00 0.00 0.00 56 1011.9
20260505190822 20 68 1.6 6.4 0.00 0.00 0.00 56 1011.9
20260505190331 20 28 3.2 9.7 0.00 0.00 0.00 58 1011.9
20260505185821 20 328 3.2 9.7 0.00 0.00 0.00 58 1012.0
20260505185332 20 326 1.6 8.0 0.00 0.00 0.00 58 1012.1
20260505184821 19 354 1.6 8.0 0.00 0.00 0.00 59 1012.1
20260505184325 20 6 4.8 9.7 0.00 0.00 0.00 57 1012.2
20260505183834 19 24 1.6 8.0 0.00 0.00 0.00 61 1012.2
20260505183329 19 232 3.2 8.0 0.00 0.00 0.00 57 1012.2
20260505182823 19 355 3.2 4.8 0.00 0.00 0.00 61 1012.3
20260505182333 18 286 1.6 4.8 0.00 0.00 0.00 60 1012.3
20260505181823 18 179 1.6 4.8 0.00 0.00 0.00 60 1012.2
20260505181330 18 213 1.6 8.0 0.00 0.00 0.00 58 1012.3
20260505180839 18 23 3.2 8.0 0.00 0.00 0.00 61 1012.3
20260505180328 18 41 1.6 6.4 0.00 0.00 0.00 65 1012.4
20260505175819 18 358 1.6 8.0 0.00 0.00 0.00 64 1012.4
20260505175329 17 128 1.6 8.0 0.00 0.00 0.00 61 1012.5
20260505174818 17 180 1.6 4.8 0.00 0.00 0.00 66 1012.5
20260505174324 17 188 1.6 3.2 0.00 0.00 0.00 64 1012.5
20260505173835 17 290 1.6 4.8 0.00 0.00 0.00 64 1012.5
20260505173329 17 274 1.6 4.8 0.00 0.00 0.00 67 1012.5
20260505172821 16 275 1.6 4.8 0.00 0.00 0.00 70 1012.5
20260505172331 16 171 1.6 6.4 0.00 0.00 0.00 69 1012.5
20260505171821 16 15 3.2 6.4 0.00 0.00 0.00 67 1012.6
20260505171354 17 9 1.6 6.4 0.00 0.00 0.00 67 1012.6
20260505170842 16 182 1.6 6.4 0.00 0.00 0.00 70 1012.6
20260505170329 16 3 1.6 6.4 0.00 0.00 0.00 70 1012.6
20260505165822 16 17 3.2 6.4 0.00 0.00 0.00 73 1012.7
20260505165330 16 71 3.2 6.4 0.00 0.00 0.00 72 1012.7
20260505164820 16 283 1.6 4.8 0.00 0.00 0.00 71 1012.8
20260505164335 16 330 1.6 4.8 0.00 0.00 0.00 73 1012.8
20260505163825 15 312 1.6 3.2 0.00 0.00 0.00 73 1012.8
20260505163335 15 339 0.0 4.8 0.00 0.00 0.00 75 1012.8
20260505162849 15 332 1.6 4.8 0.00 0.00 0.00 75 1012.7
20260505162322 15 320 1.6 3.2 0.00 0.00 0.00 75 1012.7
20260505161852 14 305 1.6 3.2 0.00 0.00 0.00 76 1012.8
20260505161323 14 354 1.6 3.2 0.00 0.00 0.00 75 1012.8
20260505160833 13 309 0.0 3.2 0.00 0.00 0.00 76 1012.8
20260505160324 13 18 1.6 4.8 0.00 0.00 0.00 78 1012.9
20260505153318 13 295 0.0 0.0 0.00 0.00 0.00 81 1012.8
20260505152850 12 295 0.0 1.6 0.00 0.00 0.00 81 1012.8
20260505152318 12 295 0.0 1.6 0.00 0.00 0.00 83 1012.8
20260505151827 12 295 0.0 1.6 0.00 0.00 0.00 83 1012.8
20260505151322 12 295 0.0 1.6 0.00 0.00 0.00 83 1012.7
20260505150831 12 295 0.0 1.6 0.00 0.00 0.00 84 1012.7
20260505150324 12 295 0.0 1.6 0.00 0.00 0.00 84 1012.7
20260505140331 11 295 0.0 1.6 0.00 0.00 0.00 87 1012.3
20260505124821 11 295 0.0 1.6 0.00 0.00 0.00 88 1011.7
20260505124317 11 295 0.0 1.6 0.00 0.00 0.00 88 1011.6
20260505123827 11 340 0.0 1.6 0.00 0.00 0.00 88 1011.6
20260505123318 11 343 0.0 1.6 0.00 0.00 0.00 88 1011.6
20260505122823 11 356 0.0 1.6 0.00 0.00 0.00 88 1011.5
20260505122351 11 3 0.0 0.0 0.00 0.00 0.00 89 1011.5
20260505121818 11 3 0.0 0.0 0.00 0.00 0.00 89 1011.5
20260505121343 10 3 0.0 0.0 0.00 0.00 0.00 88 1011.4
20260505120851 10 3 0.0 0.0 0.00 0.00 0.00 88 1011.4
20260505120320 10 3 0.0 0.0 0.00 0.00 0.00 88 1011.3
20260505115825 10 3 0.0 0.0 0.00 0.00 0.00 89 1011.3
20260505115334 10 3 0.0 0.0 0.00 0.00 0.00 89 1011.2
20260505114828 10 3 0.0 0.0 0.00 0.00 0.00 89 1011.2
20260505114320 10 3 0.0 0.0 0.00 0.00 0.00 89 1011.2
20260505113829 10 3 0.0 0.0 0.00 0.00 0.00 89 1011.1
20260505113318 10 3 0.0 0.0 0.00 0.00 0.00 89 1011.1
20260505112831 10 3 0.0 0.0 0.00 0.00 0.00 89 1011.1
20260505112321 10 3 0.0 0.0 0.00 0.00 0.00 89 1011.1
20260505111831 10 3 0.0 0.0 0.00 0.00 0.00 89 1011.0
20260505111321 10 3 0.0 0.0 0.00 0.00 0.00 89 1011.0
20260505110850 10 3 0.0 0.0 0.00 0.00 0.00 89 1011.0
20260505110319 10 3 0.0 0.0 0.00 0.00 0.00 89 1011.0